Regional Weather Roundup
Issued by NWS Nashville, TN

Home | Current Version | Previous Version | Text Only | Print | Product List | Glossary On
Versions: 1 2 3 4 5 6 7 8 9 10 11 12 13 14 15 16 17 18 19 20 21 22 23 24 25 26 27 28 29 30 31 32 33 34 35 36 37 38 39 40 41 42 43 44 45 46 47 48 49 50
000
ASUS44 KOHX 211710
RWROHX
MIDDLE TENNESSEE HOURLY WEATHER ROUNDUP
NATIONAL WEATHER SERVICE NASHVILLE TN
1100 AM CST SAT JAN 21 2017

NOTE: "FAIR" INDICATES FEW OR NO CLOUDS BELOW 12,000 FEET WITH
NO SIGNIFICANT WEATHER AND/OR OBSTRUCTIONS TO VISIBILITY.

* THESE REPORTS ARE NOT UNDER NWS QUALITY CONTROL AND MAY NOT
  REPORT WEATHER SUCH AS PRECIPITATION AND FOG.


TNZ005>011-023>034-057-059-062>066-078-080-211800
...NORTHERN MIDDLE TENNESSEE...

CITY           SKY/WX    TMP DP  RH WIND       PRES   REMARKS
CLARKSVILLE    PTSUNNY   64  53  67 SW10      29.70F
CROSSVILLE     LGT RAIN  55  53  93 S8        29.80F
GALLATIN       SUNNY     64  54  68 CALM      29.72F
DICKSON        CLOUDY    62  55  77 S8        29.70F
LEBANON        CLOUDY    66  45  46 S18       29.69F
NASHVILLE      CLOUDY    67  45  45 S8        29.72R
PORTLAND       PTSUNNY   64  54  68 S8        29.71S
SMYRNA         CLOUDY    64  52  64 SE10      29.72S
SPRINGFIELD    MOSUNNY   64  55  72 MISG      29.70F
WEST NASHVILLE PTSUNNY   64  52  63 SW3       29.70F
$$
TNZ056-058-060-061-075>077-079-093>097-211800
...SOUTHERN MIDDLE TENNESSEE...

CITY           SKY/WX    TMP DP  RH WIND       PRES   REMARKS
COLUMBIA       PTSUNNY   63  61  94 SW9       29.72R
MCMINNVILLE    SUNNY     57  57 100 E7        29.69F
MURFREESBORO   CLOUDY    62  51  67 SE8       29.70F
SHELBYVILLE    SUNNY     61  55  82 SE9       29.70F
TULLAHOMA      SUNNY     55  52  88 SE8       29.71R
WINCHESTER     MOSUNNY   55  52  88 SE18      29.68F
$$


...KEY TO REMARKS...
VSB - VISIBILITY IN MILES
WCI - WIND CHILL INDEX
HX  - HEAT INDEX




USA.gov is the U.S. government's official web portal to all federal, state and local government web resources and services.